Date,TemperatureHighF,TemperatureAvgF,TemperatureLowF,DewpointHighF,DewpointAvgF,DewpointLowF,HumidityHigh,HumidityAvg,HumidityLow,PressureMaxIn,PressureMinIn,WindSpeedMaxMPH,WindSpeedAvgMPH,GustSpeedMaxMPH,PrecipitationSumIn
2013-2-1,31,24,19,25,20,14,88,82,78,0.00,40.00,14,8,20,0.01
2013-2-2,41,24,16,22,8,-100,77,58,40,0.00,40.00,11,5,16,0.11
2013-2-3,39,25,20,15,10,6,70,52,34,0.00,40.00,14,7,18,0.01
2013-2-4,34,24,15,16,10,2,68,54,39,0.00,40.00,13,7,17,0.00
2013-2-5,45,29,18,18,6,-100,60,44,33,0.00,40.00,12,7,16,0.00
2013-2-6,38,30,25,28,21,15,96,71,44,0.00,40.00,17,6,24,0.00
2013-2-7,41,26,19,22,12,-8,93,61,12,0.00,40.00,12,5,15,0.03
2013-2-8,44,30,22,26,11,-2,95,46,28,0.00,40.00,21,7,38,0.01
2013-2-9,28,22,14,23,17,7,93,83,68,0.00,40.00,13,7,26,0.04
2013-2-10,28,18,11,13,8,5,84,68,49,0.00,40.00,9,5,14,0.05
2013-2-11,25,14,9,13,10,5,87,82,57,0.00,40.00,17,6,25,0.01
2013-2-12,25,13,4,16,5,-1,84,71,54,0.00,40.00,11,4,16,0.02
2013-2-13,33,21,13,16,11,4,78,65,48,0.00,40.00,8,4,17,0.02
2013-2-14,30,23,17,22,13,6,89,67,49,0.00,40.00,16,8,28,0.01
2013-2-15,28,21,15,13,8,5,77,58,43,0.00,40.00,17,9,29,0.01
2013-2-16,37,24,13,12,8,3,68,51,35,0.00,40.00,12,8,18,0.00
2013-2-17,44,29,18,18,6,-1,89,41,15,0.00,40.00,24,12,38,0.00
2013-2-18,29,18,8,15,7,-1,89,62,35,0.00,40.00,17,8,28,0.00
2013-2-19,44,25,9,5,-1,-6,58,34,17,0.00,40.00,11,4,15,0.00
2013-2-20,35,26,21,21,8,1,92,49,31,0.00,40.00,18,9,30,0.00
2013-2-21,27,21,16,22,17,12,91,85,73,0.00,40.00,11,7,18,0.14
2013-2-22,24,17,12,16,9,0,88,71,47,0.00,40.00,14,7,21,0.05
2013-2-23,33,17,7,18,7,-3,91,67,46,0.00,40.00,13,7,20,0.01
2013-2-24,22,16,10,18,11,6,89,80,68,0.00,40.00,24,10,34,0.09
2013-2-25,34,18,7,8,6,3,83,60,33,0.00,40.00,14,5,20,0.01
2013-2-26,20,16,12,13,9,5,87,73,58,0.00,40.00,17,8,27,0.00
2013-2-27,28,16,5,7,3,-3,85,59,27,0.00,40.00,12,6,18,0.05
2013-2-28,33,18,5,15,2,-5,89,53,28,0.00,40.00,17,9,22,0.02